Content
SEND FEEDBACK

Daily
Averages
Monthly
Summary
Philippines

QUEZON CITY, PHILIPPINES


Home > Asia > Philippines
Elevation: 46 meters     Latitude: 14 39N     Longitude: 121 03E

WEATHER
 
SELECT A DAY
Number of Records: 176,357;   Date Range: 7/1/96 - 9/30/14
 
SHARE

PRINT THIS DATA

[ ← Previous Day ]
WEATHER ALMANAC - 14 FEBRUARY, 2013
[ Next Day → ]
[ °F ]   °C
Weather ElementAverageHighLow
Temperature28.2 °C32 °C (11:00 am)24.4 °C (2:00 am)
Dewpoint20.8 °C23 °C (10:00 pm)19 °C (10:00 am)
Humidity63.1 %79 % (2:00 am)38 % (11:00 am)
Barometer1012.2 hPa1014.2 hPa (9:00 am)1009.1 hPa (4:00 pm)
Wind Speed12.7 km/h24.1 km/h (2:00 pm)
Weather ElementAverage
Visibility9.8 km
Wind DirectionE (93.5 °)

Weather ElementTotal
Precipitation---
Cooling Degree Days9.9 (Base 18.3)
Growing Degree Days18.2 (Base 10)
Averaged from 31 records on 14 February, 2013
WEATHER CONDITIONS BREAKOUT
WIND DIRECTION BREAKOUT
WEATHER BY HOUR - 14 FEBRUARY, 2013
[ °F ]   °C
Local TimeTemperatureDewpointHumidityBarometerVisibilityWind DirectionWind SpeedGust SpeedPrecipitationEventsConditions
1:00 AM27 °C22 °C74 %1012.2 hPa10 kmESE (110°)14.8 km/hPartly Cloudy
2:00 AM24.4 °C21.7 °C79 %1012.5 hPa9.7 kmENE (70°)10.8 km/hHaze
2:00 AM25 °C21 °C78 %1012.2 hPa10 kmENE (70°)9.3 km/hMostly Cloudy
3:00 AM26 °C21 °C74 %1011.2 hPa10 kmENE (70°)13 km/hMostly Cloudy
4:00 AM25 °C21 °C78 %1011.2 hPa10 kmCalmScattered Clouds
5:00 AM25 °C20.6 °C71 %1012.2 hPa9.7 kmENE (70°)10.8 km/hHaze
5:00 AM25 °C21 °C78 %1012.2 hPa10 kmENE (70°)11.1 km/hScattered Clouds
6:00 AM25 °C21 °C78 %1013.2 hPa10 kmESE (110°)5.6 km/hPartly Cloudy
7:00 AM25 °C21 °C78 %1013.2 hPa10 kmESE (110°)5.6 km/hPartly Cloudy
8:00 AM27.8 °C19.4 °C51 %1013.9 hPa9.7 kmNE (50°)7.2 km/hHaze
8:00 AM28 °C20 °C62 %1013.2 hPa10 kmNE (40°)7.4 km/hPartly Cloudy
9:00 AM29 °C20 °C58 %1014.2 hPa10 kmEast (90°)13 km/hPartly Cloudy
10:00 AM30 °C19 °C51 %1013.2 hPa10 kmENE (60°)13 km/hScattered Clouds
11:00 AM31.7 °C19.4 °C38 %1013.2 hPa9.7 kmEast (90°)21.6 km/hHaze
11:00 AM32 °C20 °C49 %1012.2 hPa10 kmEast (90°)20.4 km/hPartly Cloudy
12:00 PM32 °C19 °C46 %1012.2 hPa10 kmEast (90°)18.5 km/hPartly Cloudy
1:00 PM31 °C20 °C52 %1011.2 hPa10 kmEast (80°)16.7 km/hPartly Cloudy
2:00 PM31.7 °C21.7 °C47 %1011.2 hPa9.7 kmESE (110°)21.6 km/hPartly Cloudy
2:00 PM31 °C22 °C58 %1010.2 hPa10 kmESE (120°)24.1 km/hScattered Clouds
3:00 PM31 °C21 °C55 %1010.2 hPa10 kmESE (110°)20.4 km/hPartly Cloudy
4:00 PM31 °C20 °C52 %1009.1 hPa10 kmEast (80°)22.2 km/hPartly Cloudy
5:00 PM30.6 °C19.4 °C41 %1010.2 hPa9.7 kmEast (100°)18 km/hScattered Clouds
5:00 PM30 °C19 °C51 %1010.2 hPa10 kmEast (100°)18.5 km/hScattered Clouds
6:00 PM29 °C20 °C58 %1011.2 hPa10 kmEast (100°)14.8 km/hScattered Clouds
7:00 PM29 °C21 °C62 %1012.2 hPa10 kmESE (110°)14.8 km/hMostly Cloudy
8:00 PM27.2 °C22.2 °C67 %1012.9 hPa9.7 kmCalm (120°)Haze
8:00 PM27 °C22 °C74 %1012.2 hPa10 kmESE (120°)11.1 km/hMostly Cloudy
9:00 PM27 °C22 °C74 %1013.2 hPa10 kmEast (100°)11.1 km/hScattered Clouds
10:00 PM27 °C23 °C79 %1013.2 hPa10 kmESE (120°)7.4 km/hPartly Cloudy
11:00 PM26.7 °C22.2 °C70 %1012.9 hPa9.7 kmSouth (170°)7.2 km/hHaze
11:00 PM27 °C22 °C74 %1012.2 hPa10 kmSouth (170°)5.6 km/hMostly Cloudy
Hourly data recorded from RPLL, located 0 kilometers away from Quezon City, Philippines







STORIES FROM OUR PARTNERS